Leadville, CO

11:39 PM MDT on April 22, 2017 (GMT -0600)
Lake County

Weather History for KLXV - March, 2013

Change the Weather History Date:

Saturday, March 9, 2013

  Actual Average Record
Temperature  
Mean Temperature 19 °F -  
Max Temperature 27 °F 36 °F 61 °F (1989)
Min Temperature 10 °F 9 °F -18 °F (1991)
Degree Days  
Heating Degree Days 46 43  
Month to date heating degree days 377 391  
Since 1 July heating degree days 7919 8101  
Cooling Degree Days 0 0  
Month to date cooling degree days 0 0  
Year to date cooling degree days 0 0  
Moisture  
Dew Point 18 °F    
Average Humidity 84    
Maximum Humidity 100    
Minimum Humidity 68    
Precipitation  
Precipitation 0.16 in 0.03 in 0.16 in (2013)
Month to date precipitation 0.58 0.25  
Year to date precipitation 2.20 1.57  
Sea Level Pressure  
Sea Level Pressure 29.65 in    
Wind  
Wind Speed 9 mph (NNW)    
Max Wind Speed 23 mph    
Max Gust Speed 29 mph    
Visibility 4 miles    
Events Fog , Snow    
T = Trace of Precipitation, MM = Missing Value Source: NWS Daily Summary

Daily Weather History Graph

Daily Weather History Graph

Search for Another Location

Airport or City:

Trip Planner

Search our weather history database for the weather conditions in past years. The results will help you decide how hot, cold, wet, or windy it might be!

Date:

Astronomy

Mar. 09, 2013 Rise Set
Actual Time 6:25 AM MST 6:06 PM MST
Civil Twilight 5:58 AM MST 6:33 PM MST
Nautical Twilight 5:27 AM MST 7:04 PM MST
Astronomical Twilight 4:56 AM MST 7:35 PM MST
Moon 4:50 AM MST (3/9) 4:12 PM MST (3/9)
Length of Visible Light 12h 34m
Length of Day
11h 41m
Waning Crescent, 5% of the Moon is Illuminated
Mar 9
Waning Crescent
Mar 11
New
Mar 19
First Quarter
Mar 27
Full
Apr 2
Last Quarter

Hourly Weather History & Observations

Time (MST) Temp. Windchill Dew Point Humidity Pressure Visibility Wind Dir Wind Speed Gust Speed Precip Events Conditions
12:03 AM 24.8 °F - 24.8 °F 100% 29.67 in 2.0 mi Calm Calm - 0.00 in Snow Light Snow
12:13 AM 24.8 °F - 24.8 °F 100% 29.67 in 3.0 mi Calm Calm - 0.01 in Snow Light Snow
12:53 AM 25.0 °F - 24.1 °F 96% 29.45 in 9.0 mi Calm Calm - 0.01 in Snow Light Snow
1:12 AM 24.8 °F - 23.0 °F 93% 29.67 in 5.0 mi Calm Calm - 0.00 in Snow Light Snow
1:19 AM 24.8 °F - 24.8 °F 100% 29.66 in 1.8 mi Calm Calm - 0.00 in Snow Light Snow
1:29 AM 24.8 °F 20.5 °F 24.8 °F 100% 29.66 in 1.8 mi SSE 3.5 mph - 0.00 in Snow Light Snow
1:42 AM 24.8 °F - 24.8 °F 100% 29.65 in 1.8 mi Calm Calm - 0.01 in Snow Light Snow
1:53 AM 25.0 °F 20.7 °F 24.1 °F 96% 29.45 in 1.5 mi South 3.5 mph - 0.01 in Snow Light Snow
2:02 AM 24.8 °F 17.9 °F 24.8 °F 100% 29.65 in 2.5 mi SW 5.8 mph - 0.00 in Snow Light Snow
2:15 AM 24.8 °F 16.1 °F 23.0 °F 93% 29.65 in 1.8 mi SSW 8.1 mph - 0.00 in Snow Light Snow
2:37 AM 23.0 °F 17.0 °F 21.2 °F 93% 29.65 in 1.5 mi Variable 4.6 mph - 0.01 in Snow Light Snow
2:53 AM 24.1 °F - 19.9 °F 84% 29.48 in 6.0 mi Calm Calm - 0.01 in Snow Light Snow
3:01 AM 24.8 °F - 19.4 °F 80% 29.64 in 9.0 mi Calm Calm - 0.00 in   Overcast
3:53 AM 21.0 °F 11.4 °F 17.1 °F 85% 29.47 in 10.0 mi North 8.1 mph - 0.00 in   Clear
4:53 AM 19.9 °F 8.6 °F 15.1 °F 81% 29.46 in 10.0 mi North 10.4 mph - N/A   Overcast
5:53 AM 18.0 °F 11.1 °F 15.1 °F 88% 29.49 in 10.0 mi North 4.6 mph - N/A   Partly Cloudy
6:53 AM 19.9 °F 12.1 °F 16.0 °F 85% 29.52 in 10.0 mi NNE 5.8 mph - N/A   Overcast
7:14 AM 19.4 °F 11.5 °F 17.6 °F 93% 29.64 in 2.5 mi North 5.8 mph - 0.00 in Snow Light Snow
7:41 AM 21.2 °F 16.4 °F 17.6 °F 86% 29.64 in 1.5 mi NNW 3.5 mph - 0.00 in Snow Light Snow
7:53 AM 21.0 °F 16.2 °F 18.0 °F 88% 29.53 in 1.5 mi North 3.5 mph - 0.00 in Snow Light Snow
8:16 AM 21.2 °F 14.9 °F 17.6 °F 86% 29.64 in 0.8 mi North 4.6 mph - 0.01 in Snow Light Snow
8:43 AM 21.2 °F 16.4 °F 19.4 °F 93% 29.64 in 1.0 mi NNE 3.5 mph - 0.02 in Snow Light Snow
8:51 AM 23.0 °F - 19.4 °F 86% 29.64 in 0.8 mi Calm Calm - 0.02 in Snow Light Snow
8:53 AM 23.0 °F 18.4 °F 19.0 °F 85% 29.52 in 0.8 mi NNE 3.5 mph - 0.02 in Snow Light Snow
9:06 AM 23.0 °F - 19.4 °F 86% 29.64 in 1.2 mi Calm Calm - 0.00 in Snow Light Snow
9:34 AM 23.0 °F 18.4 °F 19.4 °F 86% 29.64 in 0.8 mi Variable 3.5 mph - 0.01 in Snow Light Snow
9:51 AM 24.8 °F 19.1 °F 19.4 °F 80% 29.64 in 1.0 mi North 4.6 mph - 0.01 in Snow Light Snow
9:53 AM 24.1 °F 19.7 °F 19.9 °F 84% 29.52 in 1.0 mi North 3.5 mph - 0.01 in Snow Light Snow
10:15 AM 24.8 °F 16.1 °F 19.4 °F 80% 29.64 in 0.8 mi North 8.1 mph - 0.01 in Snow Light Snow
10:25 AM 24.8 °F 19.1 °F 19.4 °F 80% 29.64 in 1.0 mi North 4.6 mph - 0.02 in Snow Light Snow
10:53 AM 25.0 °F 19.3 °F 21.0 °F 85% 29.51 in 1.2 mi North 4.6 mph - 0.02 in Snow Light Snow
11:27 AM 26.6 °F 18.2 °F 21.2 °F 80% 29.65 in 2.0 mi NNW 8.1 mph - 0.00 in Snow Light Snow
11:33 AM 26.6 °F 21.2 °F 21.2 °F 80% 29.65 in 1.5 mi WNW 4.6 mph - 0.00 in Snow Light Snow
11:49 AM 26.6 °F 19.1 °F 21.2 °F 80% 29.65 in 1.8 mi NNW 6.9 mph - 0.01 in Snow Light Snow
11:53 AM 27.0 °F 20.5 °F 21.9 °F 81% 29.50 in 2.0 mi Variable 5.8 mph - 0.01 in Snow Light Snow
12:11 PM 26.6 °F 19.1 °F 21.2 °F 80% 29.64 in 1.8 mi Variable 6.9 mph - 0.00 in Snow Light Snow
12:21 PM 26.6 °F 18.2 °F 21.2 °F 80% 29.65 in 2.0 mi NW 8.1 mph - 0.00 in Snow Light Snow
12:33 PM 26.6 °F 19.1 °F 21.2 °F 80% 29.65 in 1.2 mi NW 6.9 mph - 0.00 in Snow Light Snow
12:41 PM 24.8 °F 15.3 °F 21.2 °F 86% 29.66 in 1.0 mi NNW 9.2 mph - 0.00 in Snow Light Snow
12:48 PM 24.8 °F 15.3 °F 21.2 °F 86% 29.65 in 0.8 mi North 9.2 mph - 0.01 in Snow Light Snow
12:53 PM 25.0 °F 13.1 °F 21.0 °F 85% 29.52 in 0.5 mi North 13.8 mph 19.6 mph 0.01 in Fog , Snow Snow
1:00 PM 24.8 °F 13.4 °F 21.2 °F 86% 29.65 in 0.2 mi North 12.7 mph - 0.00 in Fog , Snow Snow
1:10 PM 24.8 °F 12.9 °F 21.2 °F 86% 29.65 in 0.5 mi North 13.8 mph 21.9 mph 0.01 in Fog , Snow Snow
1:33 PM 23.0 °F 11.7 °F 19.4 °F 86% 29.65 in 0.2 mi WNW 11.5 mph - 0.02 in Fog , Snow Snow
1:40 PM 23.0 °F 12.4 °F 19.4 °F 86% 29.65 in 0.5 mi NW 10.4 mph - 0.03 in Fog , Snow Light Snow
1:48 PM 23.0 °F 11.7 °F 17.6 °F 80% 29.65 in 2.0 mi WNW 11.5 mph - 0.03 in Snow Light Snow
1:53 PM 23.0 °F 14.7 °F 18.0 °F 81% 29.53 in 1.5 mi NW 6.9 mph - 0.03 in Snow Light Snow
2:04 PM 24.8 °F 13.4 °F 17.6 °F 74% 29.67 in 2.5 mi North 12.7 mph - 0.00 in Snow Light Snow
2:33 PM 24.8 °F 14.0 °F 17.6 °F 74% 29.68 in 9.0 mi NNW 11.5 mph - 0.00 in Snow Light Snow
2:53 PM 26.1 °F 15.0 °F 18.0 °F 71% 29.56 in 9.0 mi NNW 12.7 mph 20.7 mph 0.00 in   Overcast
3:19 PM 26.6 °F 13.8 °F 15.8 °F 64% 29.70 in 10.0 mi NNW 17.3 mph 25.3 mph 0.00 in   Overcast
3:53 PM 24.1 °F 10.1 °F 16.0 °F 71% 29.62 in 10.0 mi North 18.4 mph 21.9 mph 0.00 in   Mostly Cloudy
4:53 PM 21.0 °F 6.6 °F 15.1 °F 78% 29.69 in 4.0 mi North 17.3 mph 28.8 mph 0.00 in Snow Light Snow
5:53 PM 19.0 °F 4.5 °F 12.9 °F 77% 29.78 in 3.0 mi North 16.1 mph 23.0 mph 0.00 in Snow Light Snow
6:53 PM 18.0 °F 4.8 °F 10.9 °F 74% 29.82 in 10.0 mi North 12.7 mph - 0.00 in   Overcast
7:11 PM 17.6 °F 5.0 °F 10.4 °F 73% 29.86 in 10.0 mi North 11.5 mph - N/A   Overcast
7:34 PM 17.6 °F 5.7 °F 10.4 °F 73% 29.87 in 10.0 mi North 10.4 mph - 0.00 in   Overcast
7:53 PM 17.1 °F 5.0 °F 10.9 °F 77% 29.84 in 10.0 mi North 10.4 mph - 0.00 in   Overcast
8:53 PM 15.1 °F -0.1 °F 9.0 °F 77% 29.87 in 10.0 mi North 15.0 mph 23.0 mph N/A   Partly Cloudy
9:53 PM 12.9 °F -2.8 °F 7.0 °F 77% 29.90 in 10.0 mi North 15.0 mph - N/A   Clear
10:53 PM 10.9 °F -3.4 °F 6.1 °F 81% 29.93 in 10.0 mi North 11.5 mph - N/A   Partly Cloudy
11:53 PM 10.9 °F -4.1 °F 5.0 °F 77% 29.92 in 10.0 mi North 12.7 mph - N/A   Mostly Cloudy